• In Uzbekistan
  • List of Countries
  • For 7 days
  • Water Temperature
  • Satellite Maps
  • Weather Map
  • Weather Widgets
  • user-avatar
    Login

    Hourly Weather Gweru

    Today, 24 September, Monday

    Time Temperature Precipitation Wind Pressure Humidity
    00:00 +17°C° 0 mm 2 mps 645 mmHg 26%
    01:00 +16°C° 0 mm 2 mps 645 mmHg 29%
    02:00 +15°C° 0 mm 1 mps 644 mmHg 31%
    03:00 +15°C° 0 mm 1 mps 644 mmHg 35%
    04:00 +14°C° 0 mm 1 mps 644 mmHg 40%
    05:00 +14°C° 0 mm 1 mps 644 mmHg 44%
    06:00 +16°C° 0 mm 2 mps 645 mmHg 39%
    07:00 +19°C° 0 mm 2 mps 646 mmHg 35%
    08:00 +23°C° 0 mm 2 mps 647 mmHg 28%
    09:00 +25°C° 0 mm 3 mps 647 mmHg 23%
    10:00 +27°C° 0 mm 3 mps 648 mmHg 17%
    11:00 +29°C° 0 mm 3 mps 648 mmHg 12%
    12:00 +31°C° 0 mm 3 mps 647 mmHg 11%
    13:00 +33°C° 0 mm 3 mps 647 mmHg 9%
    14:00 +33°C° 0 mm 3 mps 646 mmHg 9%
    15:00 +33°C° 0 mm 3 mps 646 mmHg 10%
    16:00 +31°C° 0 mm 3 mps 646 mmHg 10%
    17:00 +31°C° 0 mm 3 mps 646 mmHg 10%
    18:00 +28°C° 0 mm 3 mps 646 mmHg 13%
    19:00 +26°C° 0 mm 3 mps 645 mmHg 17%
    20:00 +24°C° 0 mm 3 mps 645 mmHg 20%
    21:00 +23°C° 0 mm 2 mps 645 mmHg 23%
    22:00 +21°C° 0 mm 2 mps 646 mmHg 27%
    23:00 +20°C° 0 mm 2 mps 646 mmHg 31%

    Tomorrow, 25 September, Tuesday

    Time Temperature Precipitation Wind Pressure Humidity
    00:00 +20°C° 0 mm 2 mps 646 mmHg 35%
    01:00 +19°C° 0 mm 2 mps 645 mmHg 39%
    02:00 +18°C° 0 mm 2 mps 645 mmHg 43%
    03:00 +18°C° 0 mm 2 mps 645 mmHg 46%
    04:00 +17°C° 0 mm 2 mps 644 mmHg 50%
    05:00 +17°C° 0 mm 2 mps 644 mmHg 53%
    06:00 +19°C° 0 mm 2 mps 645 mmHg 46%
    07:00 +21°C° 0 mm 2 mps 646 mmHg 39%
    08:00 +24°C° 0 mm 3 mps 647 mmHg 32%
    09:00 +26°C° 0 mm 3 mps 647 mmHg 27%
    10:00 +29°C° 0 mm 3 mps 647 mmHg 22%
    11:00 +31°C° 0 mm 3 mps 648 mmHg 17%
    12:00 +33°C° 0 mm 3 mps 647 mmHg 15%
    13:00 +34°C° 0 mm 2 mps 647 mmHg 13%
    14:00 +35°C° 0 mm 2 mps 646 mmHg 11%
    15:00 +34°C° 0 mm 2 mps 646 mmHg 11%
    16:00 +34°C° 0 mm 2 mps 645 mmHg 11%
    17:00 +32°C° 0 mm 2 mps 645 mmHg 11%
    18:00 +30°C° 0 mm 2 mps 644 mmHg 14%
    19:00 +27°C° 0 mm 1 mps 644 mmHg 17%
    20:00 +25°C° 0 mm 1 mps 644 mmHg 20%
    21:00 +24°C° 0 mm 1 mps 644 mmHg 21%
    22:00 +23°C° 0 mm 2 mps 645 mmHg 23%
    23:00 +23°C° 0 mm 2 mps 645 mmHg 24%

    Day after tomorrow, 26 September, Wednesday

    Time Temperature Precipitation Wind Pressure Humidity
    00:00 +21°C° 0 mm 2 mps 644 mmHg 27%
    01:00 +20°C° 0 mm 2 mps 644 mmHg 29%
    02:00 +20°C° 0 mm 2 mps 644 mmHg 32%
    03:00 +19°C° 0 mm 2 mps 644 mmHg 35%
    04:00 +19°C° 0 mm 2 mps 643 mmHg 38%
    05:00 +18°C° 0 mm 2 mps 643 mmHg 41%
    06:00 +20°C° 0 mm 3 mps 644 mmHg 38%
    07:00 +22°C° 0 mm 4 mps 645 mmHg 35%
    08:00 +25°C° 0 mm 5 mps 646 mmHg 32%
    09:00 +28°C° 0 mm 4 mps 646 mmHg 27%
    10:00 +31°C° 0 mm 3 mps 647 mmHg 22%
    11:00 +34°C° 0 mm 3 mps 647 mmHg 16%
    12:00 +35°C° 0 mm 2 mps 647 mmHg 14%
    13:00 +36°C° 0 mm 1 mps 647 mmHg 12%
    14:00 +37°C° 0 mm 1 mps 646 mmHg 11%
    15:00 +36°C° 0 mm 1 mps 646 mmHg 12%
    16:00 +34°C° 0 mm 1 mps 645 mmHg 13%
    17:00 +32°C° 0 mm 1 mps 644 mmHg 14%
    18:00 +31°C° 0 mm 2 mps 644 mmHg 15%
    19:00 +30°C° 0 mm 2 mps 645 mmHg 16%
    20:00 +29°C° 0 mm 2 mps 645 mmHg 16%
    21:00 +28°C° 0 mm 2 mps 645 mmHg 17%
    22:00 +28°C° 0 mm 2 mps 645 mmHg 18%
    23:00 +28°C° 0 mm 2 mps 646 mmHg 20%

    27 September, Thursday

    Time Temperature Precipitation Wind Pressure Humidity
    00:00 +27°C° 0 mm 3 mps 645 mmHg 22%
    01:00 +27°C° 0 mm 3 mps 645 mmHg 24%
    02:00 +26°C° 0 mm 3 mps 645 mmHg 26%
    03:00 +25°C° 0 mm 3 mps 645 mmHg 29%
    04:00 +24°C° 0 mm 2 mps 644 mmHg 31%
    05:00 +23°C° 0 mm 2 mps 644 mmHg 34%
    06:00 +25°C° 0 mm 3 mps 645 mmHg 31%
    07:00 +27°C° 0 mm 3 mps 646 mmHg 27%
    08:00 +28°C° 0 mm 4 mps 647 mmHg 23%
    09:00 +30°C° 0 mm 4 mps 647 mmHg 19%
    10:00 +34°C° 0 mm 4 mps 648 mmHg 15%
    11:00 +36°C° 0 mm 4 mps 648 mmHg 11%
    12:00 +36°C° 0 mm 4 mps 647 mmHg 11%
    13:00 +37°C° 0 mm 4 mps 647 mmHg 11%
    14:00 +37°C° 0 mm 5 mps 646 mmHg 10%
    15:00 +36°C° 0 mm 5 mps 646 mmHg 11%
    16:00 +35°C° 0 mm 5 mps 645 mmHg 13%
    17:00 +34°C° 0 mm 5 mps 645 mmHg 14%
    18:00 +32°C° 0 mm 5 mps 645 mmHg 17%
    19:00 +29°C° 0 mm 4 mps 645 mmHg 20%
    20:00 +28°C° 0 mm 4 mps 645 mmHg 23%
    21:00 +27°C° 0 mm 4 mps 645 mmHg 25%
    22:00 +26°C° 0 mm 4 mps 646 mmHg 27%
    23:00 +25°C° 0 mm 3 mps 646 mmHg 28%

    28 September, Friday

    Time Temperature Precipitation Wind Pressure Humidity
    00:00 +25°C° 0 mm 3 mps 645 mmHg 32%
    01:00 +24°C° 0 mm 3 mps 645 mmHg 35%
    02:00 +23°C° 0 mm 2 mps 644 mmHg 38%
    03:00 +21°C° 0 mm 2 mps 644 mmHg 41%
    04:00 +20°C° 0 mm 2 mps 644 mmHg 44%
    05:00 +20°C° 0 mm 2 mps 644 mmHg 47%
    06:00 +23°C° 0 mm 2 mps 645 mmHg 41%
    07:00 +25°C° 0 mm 3 mps 646 mmHg 36%
    08:00 +27°C° 0 mm 3 mps 647 mmHg 30%
    09:00 +30°C° 0 mm 3 mps 647 mmHg 24%
    10:00 +33°C° 0 mm 4 mps 647 mmHg 18%
    11:00 +35°C° 0 mm 4 mps 648 mmHg 12%
    12:00 +35°C° 0 mm 4 mps 647 mmHg 11%
    13:00 +36°C° 0 mm 4 mps 646 mmHg 9%
    14:00 +37°C° 0 mm 5 mps 646 mmHg 8%
    15:00 +36°C° 0 mm 5 mps 645 mmHg 9%
    16:00 +35°C° 0 mm 5 mps 645 mmHg 10%
    17:00 +34°C° 0 mm 5 mps 645 mmHg 10%
    18:00 +32°C° 0 mm 5 mps 645 mmHg 13%
    19:00 +29°C° 0 mm 4 mps 645 mmHg 15%
    20:00 +27°C° 0 mm 4 mps 645 mmHg 17%
    21:00 +26°C° 0 mm 4 mps 645 mmHg 19%
    22:00 +25°C° 0 mm 4 mps 645 mmHg 21%
    23:00 +23°C° 0 mm 4 mps 645 mmHg 22%

    29 September, Saturday

    Time Temperature Precipitation Wind Pressure Humidity
    00:00 +24°C° 0 mm 3 mps 645 mmHg 26%
    01:00 +22°C° 0 mm 3 mps 644 mmHg 30%
    02:00 +21°C° 0 mm 2 mps 644 mmHg 34%
    03:00 +20°C° 0 mm 2 mps 644 mmHg 37%
    04:00 +20°C° 0 mm 1 mps 644 mmHg 40%
    05:00 +20°C° 0 mm 1 mps 644 mmHg 44%
    06:00 +21°C° 0 mm 2 mps 645 mmHg 41%
    07:00 +24°C° 0 mm 3 mps 647 mmHg 37%
    08:00 +26°C° 0 mm 3 mps 648 mmHg 34%
    09:00 +27°C° 0 mm 4 mps 648 mmHg 31%
    10:00 +29°C° 0 mm 5 mps 648 mmHg 29%
    11:00 +30°C° 0 mm 6 mps 649 mmHg 26%
    12:00 +29°C° 0 mm 7 mps 648 mmHg 29%
    13:00 +28°C° 0 mm 7 mps 647 mmHg 31%
    14:00 +28°C° 0 mm 7 mps 647 mmHg 34%
    15:00 +27°C° 0 mm 8 mps 647 mmHg 35%
    16:00 +27°C° 0 mm 8 mps 647 mmHg 36%
    17:00 +26°C° 0 mm 8 mps 647 mmHg 37%
    18:00 +24°C° 0 mm 7 mps 648 mmHg 41%
    19:00 +22°C° 0 mm 7 mps 648 mmHg 45%
    20:00 +21°C° 0 mm 7 mps 648 mmHg 49%
    21:00 +20°C° 0 mm 7 mps 648 mmHg 55%
    22:00 +18°C° 0 mm 7 mps 649 mmHg 62%
    23:00 +17°C° 0 mm 7 mps 649 mmHg 69%
    Show more